Weather History for KCIN - February, 2014

Change the Weather History Date:

Friday, February 7, 2014

  Actual Average Record
Temperature  
Mean Temperature 4 °F -  
Max Temperature 14 °F 28 °F 64 °F (1987)
Min Temperature -5 °F 8 °F -17 °F (1972)
Degree Days  
Heating Degree Days 60    
Moisture  
Dew Point -3 °F    
Average Humidity 69    
Maximum Humidity 78    
Minimum Humidity 53    
Precipitation  
Precipitation 0.00 in - - ()
Sea Level Pressure  
Sea Level Pressure 30.25 in    
Wind  
Wind Speed 12 mph (SW)    
Max Wind Speed 18 mph    
Max Gust Speed 22 mph    
Visibility 10 miles    
Events      
Averages and records for this station are not official NWS values.
T = Trace of Precipitation, MM = Missing Value Source: NWS Daily Summary

Daily Weather History Graph

Daily Weather History Graph

Search for Another Location

Airport or City:

Trip Planner

Search our weather history database for the weather conditions in past years. The results will help you decide how hot, cold, wet, or windy it might be!

Date:

Astronomy

Feb. 07, 2014 Rise Set
Actual Time 7:25 AM CST 5:41 PM CST
Civil Twilight 6:56 AM CST 6:11 PM CST
Nautical Twilight 6:23 AM CST 6:44 PM CST
Astronomical Twilight 5:50 AM CST 7:16 PM CST
Moon 11:52 AM CST (2/7) 1:42 AM CST (2/7)
Length of Visible Light 11h 14m
Length of Day
10h 16m
First Quarter, 59% of the Moon is Illuminated
Feb 7
First Quarter
Feb 14
Full
Feb 22
Last Quarter
Mar 1
New
Mar 8
First Quarter

Hourly Weather History & Observations

Time (CST) Temp. Windchill Dew Point Humidity Pressure Visibility Wind Dir Wind Speed Gust Speed Precip Events Conditions
12:15 AM -2.2 °F -22.2 °F -7.6 °F 78% 30.35 in 10.0 mi WSW 15.0 mph - N/A   Overcast
12:35 AM -2.2 °F -22.2 °F -7.6 °F 78% 30.34 in 10.0 mi WSW 15.0 mph - N/A   Overcast
12:55 AM -2.2 °F -20.7 °F -7.6 °F 78% 30.34 in 10.0 mi WSW 12.7 mph - N/A   Overcast
1:15 AM -2.2 °F -21.5 °F -7.6 °F 78% 30.33 in 10.0 mi WSW 13.8 mph - N/A   Overcast
1:35 AM -2.2 °F -21.5 °F -7.6 °F 78% 30.32 in 10.0 mi WSW 13.8 mph - N/A   Overcast
1:55 AM -2.2 °F -22.9 °F -9.4 °F 71% 30.32 in 10.0 mi SW 16.1 mph - N/A   Mostly Cloudy
2:15 AM -4.0 °F -23.0 °F -9.4 °F 78% 30.32 in 10.0 mi WSW 12.7 mph - N/A   Mostly Cloudy
2:35 AM -4.0 °F -22.1 °F -9.4 °F 78% 30.31 in 10.0 mi WSW 11.5 mph - N/A   Mostly Cloudy
2:55 AM -4.0 °F -22.1 °F -9.4 °F 78% 30.31 in 10.0 mi WSW 11.5 mph - N/A   Overcast
3:15 AM -5.8 °F -19.9 °F -13.0 °F 71% 30.31 in 10.0 mi West 6.9 mph - N/A   Overcast
3:35 AM -5.8 °F -18.4 °F -11.2 °F 77% 30.30 in 10.0 mi West 5.8 mph - N/A   Overcast
3:55 AM -5.8 °F -18.4 °F -11.2 °F 77% 30.30 in 10.0 mi West 5.8 mph - N/A   Overcast
4:15 AM -5.8 °F -18.4 °F -11.2 °F 77% 30.30 in 10.0 mi West 5.8 mph - N/A   Overcast
4:35 AM -4.0 °F -17.8 °F -11.2 °F 71% 30.29 in 10.0 mi West 6.9 mph - N/A   Overcast
4:55 AM -5.8 °F -19.9 °F -11.2 °F 77% 30.29 in 10.0 mi West 6.9 mph - N/A   Mostly Cloudy
5:15 AM -4.0 °F -21.2 °F -9.4 °F 78% 30.29 in 10.0 mi WSW 10.4 mph - N/A   Mostly Cloudy
5:35 AM -4.0 °F -22.1 °F -9.4 °F 78% 30.28 in 10.0 mi SW 11.5 mph - N/A   Scattered Clouds
5:55 AM -4.0 °F -20.2 °F -9.4 °F 78% 30.28 in 10.0 mi West 9.2 mph - N/A   Scattered Clouds
6:15 AM -2.2 °F -20.7 °F -7.6 °F 78% 30.29 in 10.0 mi SW 12.7 mph - N/A   Mostly Cloudy
6:35 AM -4.0 °F -23.0 °F -9.4 °F 78% 30.29 in 10.0 mi SW 12.7 mph - N/A   Mostly Cloudy
6:55 AM -4.0 °F -24.5 °F -9.4 °F 78% 30.29 in 10.0 mi SW 15.0 mph - N/A   Scattered Clouds
7:15 AM -4.0 °F -23.7 °F -9.4 °F 78% 30.29 in 10.0 mi SW 13.8 mph - N/A   Partly Cloudy
7:35 AM -4.0 °F -23.7 °F -9.4 °F 78% 30.29 in 10.0 mi SW 13.8 mph - N/A   Clear
7:55 AM -4.0 °F -20.2 °F -9.4 °F 78% 30.30 in 10.0 mi SW 9.2 mph - N/A   Clear
8:15 AM -2.2 °F -15.6 °F -9.4 °F 71% 30.30 in 10.0 mi SW 6.9 mph - N/A   Clear
8:35 AM -2.2 °F -18.9 °F -7.6 °F 78% 30.30 in 10.0 mi SW 10.4 mph - N/A   Clear
8:55 AM -0.4 °F -17.6 °F -7.6 °F 72% 30.29 in 10.0 mi SW 11.5 mph - N/A   Clear
9:15 AM 1.4 °F -15.3 °F -5.8 °F 72% 30.30 in 10.0 mi SW 11.5 mph - N/A   Clear
9:35 AM 3.2 °F -12.2 °F -4.0 °F 72% 30.30 in 10.0 mi WSW 10.4 mph - N/A   Clear
9:55 AM 5.0 °F -10.8 °F -2.2 °F 72% 30.30 in 10.0 mi SW 11.5 mph - N/A   Clear
10:15 AM 6.8 °F -7.8 °F -0.4 °F 72% 30.30 in 10.0 mi SW 10.4 mph - N/A   Clear
10:35 AM 8.6 °F -7.7 °F -0.4 °F 67% 30.30 in 10.0 mi SW 13.8 mph - N/A   Clear
10:55 AM 8.6 °F -8.9 °F -2.2 °F 62% 30.30 in 10.0 mi SW 16.1 mph - N/A   Clear
11:15 AM 8.6 °F -7.7 °F -0.4 °F 67% 30.30 in 10.0 mi SW 13.8 mph - N/A   Clear
11:35 AM 10.4 °F -5.4 °F -0.4 °F 62% 30.29 in 10.0 mi WSW 13.8 mph - N/A   Clear
11:55 AM 12.2 °F -3.7 °F -0.4 °F 57% 30.28 in 10.0 mi SW 15.0 mph - N/A   Clear
12:15 PM 12.2 °F -3.1 °F -0.4 °F 57% 30.27 in 10.0 mi SW 13.8 mph 20.7 mph N/A   Clear
12:35 PM 12.2 °F -3.7 °F -0.4 °F 57% 30.26 in 10.0 mi SW 15.0 mph 21.9 mph N/A   Clear
12:55 PM 14.0 °F -3.0 °F 1.4 °F 57% 30.25 in 10.0 mi SW 18.4 mph - N/A   Partly Cloudy
1:15 PM 14.0 °F -2.5 °F 1.4 °F 57% 30.24 in 10.0 mi SSW 17.3 mph - N/A   Clear
1:35 PM 14.0 °F -2.5 °F -0.4 °F 53% 30.23 in 10.0 mi SW 17.3 mph - N/A   Clear
1:55 PM 14.0 °F -2.0 °F -0.4 °F 53% 30.22 in 10.0 mi SSW 16.1 mph - N/A   Clear
2:15 PM 14.0 °F -0.8 °F 1.4 °F 57% 30.21 in 10.0 mi SSW 13.8 mph - N/A   Clear
2:35 PM 14.0 °F -0.8 °F 1.4 °F 57% 30.21 in 10.0 mi SSW 13.8 mph - N/A   Partly Cloudy
2:55 PM 14.0 °F 0.5 °F 1.4 °F 57% 30.20 in 10.0 mi SSW 11.5 mph 18.4 mph N/A   Partly Cloudy
3:15 PM 14.0 °F -0.2 °F 1.4 °F 57% 30.20 in 10.0 mi SSW 12.7 mph - N/A   Clear
3:35 PM 14.0 °F -0.2 °F 1.4 °F 57% 30.19 in 10.0 mi SW 12.7 mph 19.6 mph N/A   Clear
3:55 PM 14.0 °F -1.4 °F 3.2 °F 62% 30.19 in 10.0 mi SSW 15.0 mph - N/A   Partly Cloudy
4:15 PM 14.0 °F -0.2 °F 3.2 °F 62% 30.18 in 10.0 mi SSW 12.7 mph - N/A   Scattered Clouds
4:35 PM 14.0 °F -1.4 °F 3.2 °F 62% 30.18 in 10.0 mi SSW 15.0 mph - N/A   Mostly Cloudy
4:55 PM 14.0 °F -1.4 °F 1.4 °F 57% 30.18 in 10.0 mi SSW 15.0 mph - N/A   Mostly Cloudy
5:15 PM 14.0 °F -1.4 °F 1.4 °F 57% 30.18 in 10.0 mi SSW 15.0 mph - N/A   Scattered Clouds
5:35 PM 12.2 °F -4.3 °F -0.4 °F 57% 30.18 in 10.0 mi SSW 16.1 mph - N/A   Clear
5:55 PM 10.4 °F -4.1 °F -0.4 °F 62% 30.18 in 10.0 mi South 11.5 mph - N/A   Mostly Cloudy
6:15 PM 10.4 °F -1.5 °F -0.4 °F 62% 30.19 in 10.0 mi South 8.1 mph - N/A   Overcast
6:35 PM 8.6 °F -3.7 °F -0.4 °F 67% 30.19 in 10.0 mi SSW 8.1 mph - N/A   Overcast
6:55 PM 8.6 °F -1.3 °F -0.4 °F 67% 30.19 in 10.0 mi South 5.8 mph - N/A   Overcast
7:15 PM 6.8 °F -4.8 °F -2.2 °F 67% 30.19 in 10.0 mi South 6.9 mph - N/A   Overcast
7:35 PM 5.0 °F -5.6 °F -2.2 °F 72% 30.19 in 10.0 mi SSE 5.8 mph - N/A   Overcast
7:55 PM 6.8 °F -2.0 °F -0.4 °F 72% 30.19 in 10.0 mi South 4.6 mph - N/A   Overcast
8:15 PM 8.6 °F 0.1 °F -0.4 °F 67% 30.18 in 10.0 mi South 4.6 mph - N/A   Overcast
8:35 PM 10.4 °F -1.5 °F 1.4 °F 67% 30.18 in 10.0 mi South 8.1 mph - N/A   Overcast
8:55 PM 10.4 °F -3.3 °F 3.2 °F 73% 30.17 in 10.0 mi South 10.4 mph 16.1 mph N/A   Overcast
9:15 PM 12.2 °F -1.0 °F 3.2 °F 67% 30.17 in 10.0 mi SSW 10.4 mph - N/A   Overcast
9:35 PM 12.2 °F -4.3 °F 3.2 °F 67% 30.17 in 10.0 mi SSW 16.1 mph - N/A   Overcast
9:55 PM 12.2 °F -3.7 °F 3.2 °F 67% 30.16 in 10.0 mi SSW 15.0 mph - N/A   Overcast
10:15 PM 12.2 °F -3.1 °F 3.2 °F 67% 30.16 in 10.0 mi SSW 13.8 mph - N/A   Overcast
10:35 PM 12.2 °F -3.1 °F 3.2 °F 67% 30.15 in 10.0 mi SSW 13.8 mph - N/A   Overcast
10:55 PM 12.2 °F -3.7 °F 5.0 °F 73% 30.14 in 10.0 mi SSW 15.0 mph - N/A   Overcast
11:15 PM 12.2 °F -3.1 °F 5.0 °F 73% 30.15 in 10.0 mi SSW 13.8 mph - N/A   Overcast
11:35 PM 12.2 °F -3.1 °F 5.0 °F 73% 30.15 in 10.0 mi SSW 13.8 mph - N/A   Overcast
11:55 PM 12.2 °F -3.7 °F 5.0 °F 73% 30.14 in 10.0 mi SSW 15.0 mph - N/A   Overcast